EW3608 Weather Reports


time (UTC)temp
C
wind
direction
speed
KPH
gust
KPH
rain 1hr
cm
rain 24hr
cm
rain mn
cm
humidity
%
barometer
mb
20240723060131 16 0 0.0 0.0 0.00 0.00 0.00 60 1024.8
20240723055231 16 0 0.0 0.0 0.00 0.00 0.00 59 1024.7
20240723054332 16 0 0.0 0.0 0.00 0.00 0.00 58 1024.7
20240723053640 17 0 0.0 0.0 0.00 0.00 0.00 58 1024.8
20240723052743 17 0 0.0 0.0 0.00 0.00 0.00 58 1024.8
20240723051630 17 0 0.0 0.0 0.00 0.00 0.00 57 1024.7
20240723050730 17 0 0.0 0.0 0.00 0.00 0.00 57 1024.7
20240723050044 17 0 0.0 0.0 0.00 0.00 0.00 57 1024.7
20240723044930 18 0 0.0 0.0 0.00 0.00 0.00 56 1024.7
20240723044244 18 0 0.0 0.0 0.00 0.00 0.00 56 1024.7
20240723043130 18 0 0.0 0.0 0.00 0.00 0.00 53 1024.7
20240723042444 18 0 0.0 0.0 0.00 0.00 0.00 52 1024.6
20240723041541 19 0 0.0 0.0 0.00 0.00 0.00 51 1024.6
20240723040644 19 0 0.0 0.0 0.00 0.00 0.00 49 1024.6
20240723035746 20 276 0.0 1.6 0.00 0.00 0.00 48 1024.6
20240723034843 20 276 0.0 1.6 0.00 0.00 0.00 46 1024.6
20240723033940 20 276 0.0 1.6 0.00 0.00 0.00 46 1024.5
20240723032830 21 276 0.0 3.2 0.00 0.00 0.00 44 1024.4
20240723032140 22 276 0.0 1.6 0.00 0.00 0.00 41 1024.4
20240723031030 22 276 0.0 1.6 0.00 0.00 0.00 38 1024.2
20240723030340 22 276 0.0 3.2 0.00 0.00 0.00 37 1024.0
20240723025442 23 276 1.6 9.7 0.00 0.00 0.00 36 1024.0
20240723024330 23 277 1.6 8.0 0.00 0.03 0.00 36 1023.9
20240723023642 23 277 1.6 8.0 0.00 0.03 0.00 36 1023.8
20240723022532 23 288 3.2 11.3 0.00 0.03 0.00 35 1023.8
20240723021842 23 15 3.2 11.3 0.00 0.03 0.00 35 1023.7
20240723020944 23 47 1.6 9.7 0.00 0.03 0.00 36 1023.7
20240723020041 23 50 1.6 6.4 0.00 0.03 0.00 37 1023.8
20240723014932 24 50 1.6 4.8 0.00 0.03 0.00 37 1023.7
20240723014032 24 50 1.6 6.4 0.00 0.03 0.00 35 1023.7
20240723013343 24 50 3.2 8.0 0.00 0.03 0.00 35 1023.7
20240723012230 25 51 0.0 3.2 0.00 0.03 0.00 38 1023.6
20240723011543 25 0 0.0 0.0 0.00 0.03 0.00 36 1023.6
20240723010430 26 51 0.0 1.6 0.00 0.03 0.00 35 1023.5
20240723005743 26 51 0.0 1.6 0.00 0.03 0.00 35 1023.5
20240723004632 26 51 0.0 4.8 0.00 0.03 0.00 33 1023.6
20240723003942 26 50 1.6 9.7 0.00 0.03 0.00 34 1023.5
20240723002830 27 49 3.2 8.0 0.00 0.03 0.00 33 1023.4
20240723002142 27 49 3.2 6.4 0.00 0.03 0.00 32 1023.4
20240723001244 27 49 3.2 8.0 0.00 0.03 0.00 32 1023.4
20240723000342 27 47 3.2 8.0 0.00 0.03 0.00 32 1023.3
20240722235231 27 47 1.6 8.0 0.00 0.03 0.00 33 1023.3
20240722234541 27 42 1.6 8.0 0.00 0.03 0.00 32 1023.3
20240722233432 27 42 1.6 8.0 0.00 0.03 0.00 32 1023.2
20240722232741 27 66 3.2 11.3 0.00 0.03 0.00 32 1023.2
20240722231631 27 78 3.2 12.9 0.00 0.03 0.00 32 1023.2
20240722230732 27 77 1.6 8.0 0.00 0.03 0.00 32 1023.3
20240722225830 27 81 3.2 12.9 0.00 0.03 0.00 31 1023.3
20240722225140 27 71 3.2 12.9 0.00 0.03 0.00 32 1023.3
20240722224030 27 92 4.8 12.9 0.00 0.03 0.00 31 1023.4
20240722223340 27 56 3.2 9.7 0.00 0.03 0.00 31 1023.3
20240722222443 27 31 3.2 14.5 0.00 0.03 0.00 30 1023.5
20240722221545 27 77 4.8 14.5 0.00 0.03 0.00 30 1023.5
20240722220432 27 54 3.2 11.3 0.00 0.03 0.00 29 1023.7
20240722215530 27 35 1.6 8.0 0.00 0.03 0.00 29 1023.6
20240722214842 27 32 1.6 8.0 0.00 0.03 0.00 30 1023.7
20240722213944 27 9 3.2 9.7 0.00 0.03 0.00 29 1023.8
20240722213042 27 17 3.2 11.3 0.00 0.03 0.00 30 1023.9
20240722211932 27 40 1.6 9.7 0.00 0.03 0.00 29 1024.0
20240722211241 27 42 3.2 9.7 0.00 0.03 0.00 30 1024.1
20240722210344 27 17 3.2 12.9 0.00 0.03 0.00 29 1024.3
20240722205232 27 30 3.2 9.7 0.00 0.03 0.00 28 1024.5
20240722204543 27 22 3.2 8.0 0.00 0.03 0.00 29 1024.6
20240722203641 27 11 3.2 8.0 0.00 0.03 0.00 28 1024.6
20240722202743 27 9 1.6 8.0 0.00 0.03 0.00 29 1024.8
20240722201632 26 26 4.8 17.7 0.00 0.03 0.00 29 1024.9
20240722200943 26 0 0.0 8.0 0.00 0.03 0.00 30 1024.9
20240722195831 26 49 3.2 8.0 0.00 0.03 0.00 30 1025.0
20240722195142 26 67 3.2 11.3 0.00 0.03 0.00 30 1025.1
20240722194030 26 63 3.2 11.3 0.00 0.03 0.00 31 1025.2
20240722193130 26 84 6.4 14.5 0.00 0.03 0.00 32 1025.4
20240722192230 26 12 3.2 12.9 0.00 0.03 0.00 34 1025.4
20240722191330 26 57 4.8 14.5 0.00 0.03 0.00 33 1025.5
20240722190644 26 56 3.2 14.5 0.00 0.03 0.00 35 1025.5
20240722185741 26 33 3.2 11.3 0.00 0.03 0.00 35 1025.7
20240722184844 26 88 4.8 14.5 0.00 0.03 0.00 36 1025.7
20240722183941 25 33 3.2 12.9 0.00 0.03 0.00 38 1025.7
20240722183044 26 86 3.2 12.9 0.00 0.03 0.00 37 1025.8
20240722181930 25 38 1.6 8.0 0.00 0.03 0.00 37 1025.7
20240722181030 25 38 3.2 8.0 0.00 0.03 0.00 39 1025.9
20240722180340 25 38 1.6 9.7 0.00 0.03 0.00 37 1025.9
20240722175443 25 37 1.6 9.7 0.00 0.03 0.00 39 1026.0
20240722174332 25 37 3.2 8.0 0.00 0.03 0.00 39 1026.0
20240722173430 25 43 1.6 6.4 0.00 0.03 0.00 41 1026.1
20240722172740 25 43 1.6 8.0 0.00 0.03 0.00 42 1026.1
20240722171631 24 44 3.2 6.4 0.00 0.03 0.00 42 1026.1
20240722170730 23 37 3.2 6.4 0.00 0.03 0.00 44 1026.2
20240722170042 23 29 1.6 6.4 0.00 0.03 0.00 42 1026.2
20240722164930 23 162 0.0 6.4 0.00 0.03 0.00 43 1026.4
20240722164242 23 165 1.6 6.4 0.00 0.03 0.00 42 1026.4
20240722163344 23 168 1.6 4.8 0.00 0.03 0.00 44 1026.3
20240722162232 23 190 1.6 6.4 0.00 0.03 0.00 43 1026.4
20240722161330 23 195 1.6 6.4 0.00 0.03 0.00 42 1026.5
20240722160641 23 196 0.0 4.8 0.00 0.03 0.00 44 1026.5
20240722155743 22 195 1.6 6.4 0.00 0.03 0.00 43 1026.5
20240722154630 22 196 0.0 3.2 0.00 0.03 0.00 47 1026.5
20240722153732 22 196 0.0 4.8 0.00 0.03 0.00 48 1026.6
20240722153040 22 196 0.0 1.6 0.00 0.03 0.00 48 1026.6
20240722151931 21 196 0.0 3.2 0.00 0.03 0.00 47 1026.6
20240722151032 21 0 0.0 0.0 0.00 0.03 0.00 49 1026.5
20240722150342 21 196 0.0 1.6 0.00 0.03 0.00 52 1026.6
20240722145440 20 0 0.0 0.0 0.00 0.03 0.00 55 1026.7
20240722144330 18 196 0.0 1.6 0.00 0.03 0.00 59 1026.8
20240722143432 18 196 1.6 4.8 0.00 0.03 0.00 60 1026.9
20240722142742 17 196 0.0 4.8 0.00 0.03 0.00 64 1026.9
20240722141631 17 196 0.0 3.2 0.00 0.03 0.00 66 1026.8
20240722140730 16 196 0.0 3.2 0.00 0.03 0.00 68 1026.8
20240722140044 16 196 0.0 3.2 0.00 0.03 0.00 70 1026.7
20240722134930 15 0 0.0 0.0 0.00 0.03 0.00 75 1026.8
20240722134030 14 0 0.0 1.6 0.00 0.03 0.00 76 1026.7
20240722133132 14 196 0.0 1.6 0.00 0.03 0.00 78 1026.5
20240722132230 13 0 0.0 0.0 0.00 0.03 0.00 80 1026.4
20240722131546 13 0 0.0 1.6 0.00 0.03 0.00 81 1026.3
20240722130643 12 196 0.0 1.6 0.00 0.03 0.00 83 1026.3
20240722125532 12 0 0.0 0.0 0.00 0.03 0.00 83 1026.1
20240722124843 12 0 0.0 0.0 0.00 0.03 0.00 84 1026.1
20240722123730 11 0 0.0 0.0 0.00 0.03 0.00 83 1026.0
20240722122832 11 0 0.0 0.0 0.00 0.03 0.00 83 1026.0
20240722122145 11 0 0.0 0.0 0.00 0.03 0.00 83 1026.0
20240722121030 12 0 0.0 0.0 0.00 0.03 0.00 83 1026.1
20240722120344 12 196 0.0 3.2 0.00 0.03 0.00 83 1026.0
20240722115442 11 196 1.6 4.8 0.00 0.03 0.00 85 1026.1
20240722114544 11 0 0.0 0.0 0.00 0.03 0.00 85 1026.1
20240722113641 11 0 0.0 0.0 0.00 0.03 0.00 84 1026.1
20240722112532 11 196 0.0 3.2 0.00 0.03 0.00 84 1026.1
20240722111630 11 196 0.0 3.2 0.00 0.03 0.00 84 1026.0
20240722110731 12 196 0.0 1.6 0.00 0.03 0.00 83 1026.0
20240722105832 12 196 0.0 1.6 0.00 0.03 0.00 83 1025.9
20240722105143 12 0 0.0 0.0 0.00 0.03 0.00 83 1025.8
20240722104031 12 0 0.0 0.0 0.00 0.03 0.00 82 1025.7
20240722103343 12 0 0.0 0.0 0.00 0.03 0.00 82 1025.7
20240722102230 12 196 0.0 1.6 0.00 0.03 0.00 81 1025.7
20240722101330 12 0 0.0 0.0 0.00 0.03 0.00 81 1025.6
20240722100430 12 0 0.0 0.0 0.00 0.03 0.00 80 1025.6
20240722095530 12 0 0.0 3.2 0.00 0.03 0.00 79 1025.7
20240722094630 12 196 0.0 3.2 0.00 0.03 0.00 80 1025.7
20240722093730 12 196 0.0 3.2 0.00 0.03 0.00 79 1025.7
20240722092830 12 196 0.0 3.2 0.00 0.03 0.00 79 1025.9
20240722092141 12 196 0.0 3.2 0.00 0.03 0.00 80 1025.8
20240722091030 12 0 0.0 0.0 0.00 0.03 0.00 80 1025.9
20240722090130 12 0 0.0 0.0 0.00 0.03 0.00 80 1026.2
20240722085444 12 0 0.0 0.0 0.00 0.03 0.00 80 1026.1
20240722084330 13 0 0.0 0.0 0.00 0.03 0.00 79 1026.1
20240722083643 13 196 0.0 1.6 0.00 0.03 0.00 79 1026.1
20240722082530 13 0 0.0 0.0 0.00 0.03 0.00 79 1026.3
20240722081843 13 0 0.0 0.0 0.00 0.03 0.00 78 1026.4
20240722080730 13 0 0.0 0.0 0.00 0.03 0.00 78 1026.5
20240722075830 13 0 0.0 0.0 0.00 0.03 0.00 77 1026.7